Location: Andrest
(43.3200°N, 0.0641°E)
Time: 04:03:35
(UTC+00:00)

COSMO-SKYMED 1 - Pass Details

Date: 18 April 2021
Orbit: 621 x 623 km, 97.9° (Epoch: 18 May)

Event Time Altitude Azimuth Distance (km) Brightness Sun altitude
Rises 03:48:00 0° 117° (ESE) 2,898 6.5 -14.9°
Reaches altitude 10° 03:51:11 10° 91° (E) 1,996 6.1 -14.4°
Maximum altitude 03:53:19 14° 62° (ENE) 1,771 6.2 -14.1°
Drops below altitude 10° 03:55:27 10° 32° (NNE) 2,003 6.2 -13.7°
Sets 03:58:39 0° 7° (N) 2,915 6.6 -13.2°
